Location: Bazugues
(43.4465°N, 0.3432°E)
Time: 19:51:51
(UTC+00:00)

Cosmos 968 Rocket - Pass Details

Date: 12 January 2026
Orbit: 737 x 764 km, 74.0° (Epoch: 13 February)

Event Time Altitude Azimuth Distance (km) Brightness Sun altitude
Rises 18:43:07 0° 337° (NNW) 3,209 6.9 -21.0°
Reaches altitude 10° 18:45:31 10° 335° (NNW) 2,276 6.1 -21.4°
Maximum altitude 18:50:37 67° 253° (WSW) 806 3.7 -22.3°
Drops below altitude 10° 18:55:39 10° 172° (S) 2,243 5.9 -23.2°
Sets 18:58:00 0° 169° (S) 3,159 6.7 -23.7°
